GW6022 Weather Reports


time (UTC)temp
F
wind
direction
speed
knots
gust
knots
rain 1hr
in
rain 24hr
in
rain mn
in
humidity
%
barometer
mb
20260504175111 83 261 0.0 0.9 0.00 0.00 0.00 17 1015.2
20260504174723 82 261 0.0 0.9 0.00 0.00 0.00 17 1015.2
20260504174224 82 261 0.0 0.9 0.00 0.00 0.00 18 1015.3
20260504174111 82 261 0.0 0.9 0.00 0.00 0.00 18 1015.3
20260504173721 82 261 0.0 0.9 0.00 0.00 0.00 18 1015.3
20260504173223 80 261 0.0 1.7 0.00 0.00 0.00 19 1015.3
20260504173110 80 261 0.0 1.7 0.00 0.00 0.00 19 1015.3
20260504172721 81 261 0.0 1.7 0.00 0.00 0.00 19 1015.4
20260504172442 79 261 0.0 1.7 0.00 0.00 0.00 20 1015.4
20260504172110 79 261 0.0 1.7 0.00 0.00 0.00 20 1015.5
20260504171947 79 261 0.0 2.6 0.00 0.00 0.00 20 1015.6
20260504171552 78 261 0.0 2.6 0.00 0.00 0.00 21 1015.6
20260504171228 79 261 0.0 2.6 0.00 0.00 0.00 21 1015.6
20260504170719 78 261 0.0 2.6 0.00 0.00 0.00 21 1015.7
20260504170108 78 261 0.0 2.6 0.00 0.00 0.00 21 1015.7
20260504160200 76 261 0.0 1.7 0.00 0.00 0.00 21 1016.4
20260504160106 76 261 0.0 1.7 0.00 0.00 0.00 21 1016.4
20260504151141 72 261 0.0 1.7 0.00 0.00 0.00 24 1016.6
20260504151105 72 261 0.0 0.9 0.00 0.00 0.00 24 1016.6
20260504150637 71 261 0.0 3.5 0.00 0.00 0.00 25 1016.5
20260504150135 71 261 0.0 3.5 0.00 0.00 0.00 25 1016.6
20260504150104 71 261 0.0 3.5 0.00 0.00 0.00 25 1016.6
20260504141103 67 261 0.9 3.5 0.00 0.00 0.00 28 1016.8
20260504140627 67 260 0.0 3.5 0.00 0.00 0.00 28 1016.9
20260504130628 60 260 0.0 0.9 0.00 0.00 0.00 36 1016.7
20260504130349 60 260 0.0 0.9 0.00 0.00 0.00 38 1016.7
20260504110622 56 260 1.7 3.5 0.00 0.00 0.00 38 1016.2
20260504110548 56 260 0.9 2.6 0.00 0.00 0.00 38 1016.1
20260504110213 56 260 0.9 2.6 0.00 0.00 0.00 38 1016.1
20260504090110 57 260 0.0 1.7 0.00 0.00 0.00 40 1016.2
20260504081552 57 260 0.0 0.0 0.00 0.00 0.00 41 1016.1
20260504081310 57 260 0.0 0.0 0.00 0.00 0.00 41 1016.1
20260504081153 57 260 0.0 0.0 0.00 0.00 0.00 41 1016.1
20260504080546 57 260 0.0 0.0 0.00 0.00 0.00 41 1016.1
20260504050741 60 260 0.0 0.9 0.00 0.00 0.00 34 1016.8
20260504050012 60 260 0.0 0.9 0.00 0.00 0.00 34 1016.8
20260504045511 60 260 0.0 0.0 0.00 0.00 0.00 34 1016.8
20260504045011 60 260 0.0 0.9 0.00 0.00 0.00 34 1016.7
20260504044513 61 260 0.9 2.6 0.00 0.00 0.00 33 1016.8
20260504044033 61 260 0.9 2.6 0.00 0.00 0.00 32 1016.8
20260504044012 61 260 0.9 3.5 0.00 0.00 0.00 32 1016.8
20260504043529 61 260 0.0 3.5 0.00 0.00 0.00 32 1016.9
20260504043513 61 260 0.0 3.5 0.00 0.00 0.00 32 1016.9
20260504043011 61 260 0.0 2.6 0.00 0.00 0.00 32 1016.9
20260504042511 61 260 0.0 3.5 0.00 0.00 0.00 32 1016.8
20260504042012 61 260 0.0 3.5 0.00 0.00 0.00 32 1016.9
20260504041511 61 260 0.9 2.6 0.00 0.00 0.00 32 1016.9
20260504041236 61 260 0.9 1.7 0.00 0.00 0.00 32 1016.9
20260504041122 61 260 0.9 1.7 0.00 0.00 0.00 32 1016.9
20260504040509 61 260 0.0 1.7 0.00 0.00 0.00 32 1016.9
20260504040032 61 260 0.0 2.6 0.00 0.00 0.00 32 1016.9
20260504040008 61 260 0.0 2.6 0.00 0.00 0.00 32 1017.0
20260504035508 61 260 0.0 2.6 0.00 0.00 0.00 32 1017.1
20260504035010 61 260 0.0 2.6 0.00 0.00 0.00 32 1017.2
20260504034504 61 260 0.0 0.9 0.00 0.00 0.00 31 1017.0
20260504034222 62 260 0.0 0.0 0.00 0.00 0.00 31 1017.0
20260504034117 62 260 0.0 0.0 0.00 0.00 0.00 31 1017.1
20260504033729 62 260 0.0 0.0 0.00 0.00 0.00 31 1017.1
20260504033028 62 260 0.0 0.0 0.00 0.00 0.00 32 1017.0
20260504033004 62 260 0.0 0.0 0.00 0.00 0.00 32 1017.1
20260504032505 62 260 0.0 0.0 0.00 0.00 0.00 32 1017.0
20260504032004 62 260 0.0 0.9 0.00 0.00 0.00 31 1016.9
20260504031505 62 260 0.0 0.9 0.00 0.00 0.00 31 1016.9
20260504031006 63 260 0.0 0.9 0.00 0.00 0.00 30 1016.9
20260504030506 63 260 0.0 0.9 0.00 0.00 0.00 30 1016.9
20260504030030 63 260 0.0 0.0 0.00 0.00 0.00 30 1016.9
20260504030003 63 260 0.0 0.0 0.00 0.00 0.00 30 1016.8
20260504025500 63 260 0.0 0.0 0.00 0.00 0.00 29 1016.9
20260504025228 63 260 0.0 0.0 0.00 0.00 0.00 29 1016.9
20260504025113 63 260 0.0 0.0 0.00 0.00 0.00 29 1016.9
20260504024721 63 260 0.0 0.0 0.00 0.00 0.00 29 1016.8
20260504024620 63 260 0.0 0.0 0.00 0.00 0.00 28 1016.8
20260504024238 63 260 0.0 0.0 0.00 0.00 0.00 28 1016.8
20260504023500 63 260 0.0 0.0 0.00 0.00 0.00 28 1016.8
20260504023028 64 260 0.0 0.0 0.00 0.00 0.00 27 1016.8
20260504023001 64 260 0.0 0.0 0.00 0.00 0.00 27 1016.8
20260504022502 64 260 0.0 0.0 0.00 0.00 0.00 28 1016.7
20260504022458 64 260 0.0 0.0 0.00 0.00 0.00 27 1016.6
20260504022002 64 260 0.0 0.0 0.00 0.00 0.00 27 1016.5
20260504021457 64 260 0.0 0.0 0.00 0.00 0.00 27 1016.5
20260504021023 64 260 0.0 0.0 0.00 0.00 0.00 27 1016.5
20260504020957 64 260 0.0 0.0 0.00 0.00 0.00 27 1016.5
20260504020458 64 260 0.0 0.0 0.00 0.00 0.00 27 1016.4
20260504020024 64 260 0.0 0.0 0.00 0.00 0.00 27 1016.4
20260504015956 64 260 0.0 0.0 0.00 0.00 0.00 27 1016.4
20260504015614 64 260 0.0 0.0 0.00 0.00 0.00 26 1016.4
20260504014956 64 260 0.0 0.0 0.00 0.00 0.00 26 1016.3
20260504014456 64 260 0.0 0.0 0.00 0.00 0.00 25 1016.2
20260504014025 64 260 0.0 0.0 0.00 0.00 0.00 25 1016.2
20260504013957 65 260 0.0 0.0 0.00 0.00 0.00 25 1016.2
20260504013458 65 260 0.0 0.0 0.00 0.00 0.00 24 1016.2
20260504013025 65 260 0.0 0.0 0.00 0.00 0.00 24 1016.1
20260504012954 65 260 0.0 0.0 0.00 0.00 0.00 24 1016.1
20260504012451 65 260 0.0 0.0 0.00 0.00 0.00 23 1016.0
20260504012025 65 260 0.0 0.9 0.00 0.00 0.00 23 1016.0
20260504011952 65 260 0.0 0.9 0.00 0.00 0.00 23 1015.9
20260504011453 66 260 0.0 0.9 0.00 0.00 0.00 21 1015.9
20260504011025 65 260 0.0 0.9 0.00 0.00 0.00 21 1015.9
20260504010951 65 260 0.0 0.9 0.00 0.00 0.00 21 1015.9
20260504010451 66 260 0.0 0.9 0.00 0.00 0.00 20 1015.9
20260504010026 65 260 0.0 0.0 0.00 0.00 0.00 20 1015.8
20260504005953 65 260 0.0 0.0 0.00 0.00 0.00 20 1015.9
20260504005453 66 260 0.0 0.9 0.00 0.00 0.00 20 1015.8
20260504005024 66 260 0.0 1.7 0.00 0.00 0.00 19 1015.8
20260504004954 66 260 0.0 1.7 0.00 0.00 0.00 19 1015.8
20260504004504 66 260 0.0 2.6 0.00 0.00 0.00 18 1015.7
20260504004449 66 260 0.0 2.6 0.00 0.00 0.00 18 1015.7
20260504003947 66 260 0.0 2.6 0.00 0.00 0.00 18 1015.7
20260504003447 66 260 0.9 5.2 0.00 0.00 0.00 18 1015.7
20260504003025 67 260 0.9 5.2 0.00 0.00 0.00 18 1015.6
20260504002950 67 260 0.9 5.2 0.00 0.00 0.00 18 1015.6
20260504002448 67 260 0.0 3.5 0.00 0.00 0.00 18 1015.5
20260504002026 67 260 0.0 3.5 0.00 0.00 0.00 19 1015.6
20260504001948 67 260 0.0 3.5 0.00 0.00 0.00 19 1015.5
20260504001450 67 260 0.9 3.5 0.00 0.00 0.00 20 1015.6
20260504001211 68 260 0.9 3.5 0.00 0.00 0.00 19 1015.5
20260504001058 67 260 0.9 3.5 0.00 0.00 0.00 20 1015.5
20260504000443 68 260 0.9 3.5 0.00 0.00 0.00 20 1015.6
20260504000204 68 260 0.9 3.5 0.00 0.00 0.00 20 1015.5
20260504000055 68 260 0.9 3.5 0.00 0.00 0.00 20 1015.5
20260503235437 68 259 0.9 7.0 0.00 0.00 0.00 20 1015.5
20260503235013 68 259 1.7 7.0 0.00 0.00 0.00 20 1015.5
20260503234934 68 259 1.7 7.0 0.00 0.00 0.00 20 1015.5
20260503234433 68 258 1.7 5.2 0.00 0.00 0.00 20 1015.5
20260503234013 68 257 0.9 5.2 0.00 0.00 0.00 19 1015.4
20260503233933 68 258 0.9 5.2 0.00 0.00 0.00 19 1015.4
20260503233433 69 257 0.9 5.2 0.00 0.00 0.00 20 1015.4
20260503233010 69 257 0.9 7.0 0.00 0.00 0.00 19 1015.4
20260503232931 69 257 0.9 7.0 0.00 0.00 0.00 19 1015.4
20260503232448 69 256 0.9 5.2 0.00 0.00 0.00 18 1015.4
20260503232431 69 257 0.9 7.0 0.00 0.00 0.00 18 1015.5
20260503231929 69 256 0.9 7.8 0.00 0.00 0.00 18 1015.5
20260503231424 69 257 0.9 7.8 0.00 0.00 0.00 17 1015.4
20260503231009 70 256 0.9 7.8 0.00 0.00 0.00 17 1015.4
20260503230923 70 254 0.9 3.5 0.00 0.00 0.00 17 1015.4
20260503230422 70 254 0.0 3.5 0.00 0.00 0.00 16 1015.4
20260503230009 70 254 0.0 3.5 0.00 0.00 0.00 18 1015.5
20260503225921 71 254 0.0 3.5 0.00 0.00 0.00 18 1015.5
20260503225420 71 262 0.0 0.9 0.00 0.00 0.00 19 1015.5
20260503224919 71 262 0.0 1.7 0.00 0.00 0.00 19 1015.5
20260503224413 71 262 0.0 1.7 0.00 0.00 0.00 18 1015.6
20260503224007 71 262 0.0 0.9 0.00 0.00 0.00 18 1015.6
20260503223912 71 262 0.0 0.9 0.00 0.00 0.00 18 1015.6
20260503223410 73 262 0.0 0.9 0.00 0.00 0.00 17 1015.6
20260503223009 73 262 0.0 0.9 0.00 0.00 0.00 16 1015.6
20260503222908 74 262 0.0 0.9 0.00 0.00 0.00 16 1015.6
20260503222025 74 262 0.0 3.5 0.00 0.00 0.00 16 1015.6
20260503221408 74 262 0.9 5.2 0.00 0.00 0.00 16 1015.6
20260503221128 74 262 0.0 5.2 0.00 0.00 0.00 16 1015.6
20260503221022 74 262 0.0 5.2 0.00 0.00 0.00 16 1015.6
20260503220406 73 262 0.9 5.2 0.00 0.00 0.00 15 1015.6
20260503220003 74 262 0.9 5.2 0.00 0.00 0.00 14 1015.7
20260503215906 74 262 0.9 5.2 0.00 0.00 0.00 14 1015.7
20260503215404 75 259 0.9 2.6 0.00 0.00 0.00 14 1015.7
20260503215131 75 259 0.0 1.7 0.00 0.00 0.00 14 1015.7
20260503215020 75 259 0.0 1.7 0.00 0.00 0.00 14 1015.7
20260503214404 76 260 0.0 0.9 0.00 0.00 0.00 14 1015.6
20260503214002 76 260 0.9 3.5 0.00 0.00 0.00 15 1015.7
20260503213903 75 260 0.9 3.5 0.00 0.00 0.00 15 1015.6
20260503213403 75 260 0.9 3.5 0.00 0.00 0.00 16 1015.7
20260503213002 75 260 0.9 3.5 0.00 0.00 0.00 16 1015.8
20260503212903 74 260 0.9 3.5 0.00 0.00 0.00 16 1015.8
20260503212458 76 259 0.0 0.9 0.00 0.00 0.00 15 1015.9
20260503212403 75 260 0.0 3.5 0.00 0.00 0.00 16 1015.8
20260503212144 76 259 0.0 0.9 0.00 0.00 0.00 15 1015.8
20260503211401 75 259 0.0 2.6 0.00 0.00 0.00 16 1015.9
20260503210959 74 259 0.9 2.6 0.00 0.00 0.00 16 1015.9
20260503210900 75 259 0.9 2.6 0.00 0.00 0.00 16 1015.9
20260503210359 75 259 0.0 1.7 0.00 0.00 0.00 14 1015.9
20260503210000 77 259 0.0 1.7 0.00 0.00 0.00 14 1015.9
20260503205859 77 259 0.0 1.7 0.00 0.00 0.00 13 1015.9
20260503205400 77 259 0.0 1.7 0.00 0.00 0.00 14 1016.0
20260503205000 77 259 0.0 1.7 0.00 0.00 0.00 13 1016.1
20260503204902 77 259 0.0 1.7 0.00 0.00 0.00 13 1016.1
20260503204400 76 259 0.0 1.7 0.00 0.00 0.00 14 1016.2
20260503204001 75 259 0.0 1.7 0.00 0.00 0.00 14 1016.1
20260503203900 75 259 0.0 1.7 0.00 0.00 0.00 14 1016.1
20260503203401 76 259 0.0 0.9 0.00 0.00 0.00 13 1016.3
20260503203000 76 259 0.0 1.7 0.00 0.00 0.00 12 1016.3
20260503202857 76 259 0.0 1.7 0.00 0.00 0.00 12 1016.3
20260503202358 77 259 0.0 1.7 0.00 0.00 0.00 13 1016.3
20260503202000 76 259 0.0 1.7 0.00 0.00 0.00 14 1016.3
20260503201857 76 259 0.0 1.7 0.00 0.00 0.00 14 1016.4
20260503201355 77 259 0.0 2.6 0.00 0.00 0.00 13 1016.5
20260503201114 77 259 0.0 2.6 0.00 0.00 0.00 14 1016.6
20260503201013 77 259 0.0 2.6 0.00 0.00 0.00 14 1016.6
20260503200619 75 259 0.0 2.6 0.00 0.00 0.00 13 1016.7
20260503200114 75 259 0.0 2.6 0.00 0.00 0.00 13 1016.8
20260503200014 75 259 0.0 2.6 0.00 0.00 0.00 12 1016.8
20260503195356 75 259 0.0 5.2 0.00 0.00 0.00 14 1016.7
20260503194959 75 260 0.0 5.2 0.00 0.00 0.00 14 1016.8
20260503194856 74 260 0.0 5.2 0.00 0.00 0.00 14 1016.9
20260503194353 75 260 0.9 5.2 0.00 0.00 0.00 12 1017.0
20260503194000 75 260 0.9 5.2 0.00 0.00 0.00 12 1017.0
20260503193851 75 260 0.9 5.2 0.00 0.00 0.00 13 1017.0
20260503193616 75 259 0.9 2.6 0.00 0.00 0.00 13 1017.1
20260503193002 76 259 0.0 2.6 0.00 0.00 0.00 13 1017.2
20260503192852 76 260 0.0 2.6 0.00 0.00 0.00 13 1017.2
20260503192351 76 260 0.0 1.7 0.00 0.00 0.00 15 1017.3
20260503192117 75 260 0.0 1.7 0.00 0.00 0.00 14 1017.6
20260503192014 75 260 0.0 1.7 0.00 0.00 0.00 14 1017.5
20260503191351 76 259 0.9 5.2 0.00 0.00 0.00 15 1017.6
20260503191000 75 259 0.9 5.2 0.00 0.00 0.00 14 1017.6
20260503190855 75 259 0.9 5.2 0.00 0.00 0.00 14 1017.7
20260503190353 76 259 0.0 3.5 0.00 0.00 0.00 14 1017.7
20260503190008 76 259 0.0 1.7 0.00 0.00 0.00 15 1017.7
20260503185347 76 259 0.0 6.1 0.00 0.00 0.00 15 1017.8
20260503185001 75 259 0.0 6.1 0.00 0.00 0.00 14 1017.8
20260503184848 76 259 0.0 6.1 0.00 0.00 0.00 14 1017.9
20260503184604 76 258 0.0 2.6 0.00 0.00 0.00 14 1017.9
20260503184000 75 258 0.0 2.6 0.00 0.00 0.00 15 1017.9
20260503183846 75 258 0.0 2.6 0.00 0.00 0.00 15 1018.0
20260503183348 75 258 0.0 1.7 0.00 0.00 0.00 15 1018.1
20260503182959 75 258 0.0 1.7 0.00 0.00 0.00 14 1018.1
20260503182847 75 258 0.0 1.7 0.00 0.00 0.00 14 1018.2
20260503182347 74 258 0.0 1.7 0.00 0.00 0.00 15 1018.2
20260503182000 74 258 0.0 1.7 0.00 0.00 0.00 15 1018.3
20260503181849 74 258 0.0 1.7 0.00 0.00 0.00 15 1018.3
20260503181344 74 258 0.0 0.9 0.00 0.00 0.00 16 1018.3
20260503181000 74 258 0.0 0.9 0.00 0.00 0.00 15 1018.4
20260503180844 74 258 0.0 0.9 0.00 0.00 0.00 16 1018.3
20260503180343 74 258 0.0 0.9 0.00 0.00 0.00 18 1018.3
20260503180112 72 258 0.0 2.6 0.00 0.00 0.00 18 1018.4
20260503180005 72 258 0.0 1.7 0.00 0.00 0.00 18 1018.4
20260503175345 72 258 0.0 2.6 0.00 0.00 0.00 18 1018.4